INTELSAT 22 (IS-22)

Last updated on Wed Sep 17 2025 00:02:47 GMT+0000 (Coordinated Universal Time)

1 38098U 12011A 25259.38387781 -.00000079 00000+0 00000+0 0 9996 2 38098 0.0289 246.0823 0002148 299.4423 20.3861 1.00274562 4441
UTC large
Height (km)
Speed (km/s)
/
Latitude / Longitude
Inclination (degrees)
Orbital Period (minutes)
Azimuth
Elevation
Range (km)
Doppler Factor

Next 0 passes for location: London (51.5072 / 0.1276)

Sorry there are no passes over London.